TimeEST,TemperatureF,Dew PointF,Humidity,Sea Level PressureIn,VisibilityMPH,Wind Direction,Wind SpeedMPH,Gust SpeedMPH,PrecipitationIn,Events,Conditions,WindDirDegrees,DateUTC
12:52 AM,23.0,7.0,50,29.97,10.0,West,8.1,-,N/A,,Scattered Clouds,280,2013-01-21 05:52:00
1:52 AM,21.0,5.0,50,30.00,10.0,WNW,12.7,20.7,0.00,,Overcast,300,2013-01-21 06:52:00
2:52 AM,19.9,3.0,48,30.02,10.0,NW,8.1,17.3,N/A,,Partly Cloudy,310,2013-01-21 07:52:00
3:52 AM,19.0,3.0,50,30.02,10.0,WSW,4.6,-,N/A,,Clear,250,2013-01-21 08:52:00
4:52 AM,12.9,5.0,71,30.03,10.0,Calm,Calm,-,N/A,,Clear,0,2013-01-21 09:52:00
5:52 AM,18.0,1.9,50,30.05,10.0,WSW,4.6,-,N/A,,Clear,240,2013-01-21 10:52:00
6:52 AM,17.1,3.0,54,30.06,10.0,Calm,Calm,-,N/A,,Mostly Cloudy,0,2013-01-21 11:52:00
7:52 AM,12.9,5.0,71,30.06,10.0,Calm,Calm,-,N/A,,Clear,0,2013-01-21 12:52:00
8:52 AM,19.0,6.1,57,30.07,10.0,South,3.5,-,N/A,,Overcast,170,2013-01-21 13:52:00
9:52 AM,19.9,3.9,50,30.08,10.0,WNW,3.5,-,N/A,,Overcast,290,2013-01-21 14:52:00
10:52 AM,21.9,5.0,48,30.05,10.0,WSW,5.8,-,N/A,,Overcast,250,2013-01-21 15:52:00
11:52 AM,21.9,5.0,48,30.01,10.0,West,4.6,-,N/A,,Overcast,260,2013-01-21 16:52:00
12:52 PM,23.0,7.0,50,29.99,10.0,SSW,6.9,-,N/A,,Overcast,210,2013-01-21 17:52:00
1:52 PM,24.1,7.0,48,29.97,10.0,Variable,6.9,-,N/A,,Overcast,0,2013-01-21 18:52:00
2:52 PM,24.1,7.0,48,29.94,10.0,SSW,6.9,-,N/A,,Overcast,210,2013-01-21 19:52:00
3:52 PM,24.1,9.0,53,29.93,10.0,South,10.4,-,N/A,,Overcast,190,2013-01-21 20:52:00
4:52 PM,21.9,12.9,68,29.93,10.0,South,6.9,-,N/A,,Overcast,190,2013-01-21 21:52:00
5:52 PM,21.9,16.0,78,29.92,2.5,SE,3.5,-,0.00,Snow,Light Snow,140,2013-01-21 22:52:00
5:58 PM,21.2,15.8,80,29.89,1.8,South,4.6,-,0.00,Snow,Light Snow,180,2013-01-21 22:58:00
6:38 PM,21.2,17.6,86,29.89,1.2,SE,5.8,-,0.01,Snow,Light Snow,140,2013-01-21 23:38:00
6:52 PM,21.0,18.0,88,29.92,1.2,Calm,Calm,-,0.01,Snow,Light Snow,0,2013-01-21 23:52:00
7:01 PM,21.2,17.6,86,29.88,1.5,Calm,Calm,-,0.00,Snow,Light Snow,0,2013-01-22 00:01:00
7:16 PM,21.2,17.6,86,29.88,2.5,Calm,Calm,-,0.00,Snow,Light Snow,0,2013-01-22 00:16:00
7:24 PM,21.2,17.6,86,29.88,2.5,Calm,Calm,-,0.00,Snow,Light Snow,0,2013-01-22 00:24:00
7:52 PM,21.0,18.0,88,29.91,4.0,Calm,Calm,-,0.01,Snow,Light Snow,0,2013-01-22 00:52:00
8:52 PM,18.0,16.0,92,29.89,10.0,Calm,Calm,-,0.00,,Overcast,0,2013-01-22 01:52:00
9:28 PM,15.8,15.8,100,29.83,8.0,Calm,Calm,-,N/A,,Mostly Cloudy,0,2013-01-22 02:28:00
9:39 PM,15.8,14.0,93,29.83,1.5,Calm,Calm,-,N/A,,Overcast,0,2013-01-22 02:39:00
9:52 PM,16.0,14.0,92,29.86,2.5,Calm,Calm,-,N/A,,Overcast,0,2013-01-22 02:52:00
10:02 PM,17.6,14.0,86,29.82,9.0,Calm,Calm,-,N/A,,Mostly Cloudy,0,2013-01-22 03:02:00
11:52 PM,18.0,16.0,92,29.80,9.0,Calm,Calm,-,N/A,,Overcast,0,2013-01-22 04:52:00